• In Sweden
  • List of Countries
  • For 7 days
  • Water Temperature
  • Satellite Maps
  • Weather Map
  • Weather Widgets
  • user-avatar
    Login

    Hourly Weather Kabul

    Today, 21 July, Saturday

    Time Temperature Precipitation Wind Pressure Humidity
    00:00 +26°C° 0 mm 1 mps 607 mmHg 37%
    01:00 +25°C° 0 mm 1 mps 607 mmHg 39%
    02:00 +25°C° 0 mm 1 mps 607 mmHg 42%
    03:00 +24°C° 0 mm 1 mps 607 mmHg 43%
    04:00 +24°C° 0 mm 1 mps 607 mmHg 43%
    05:00 +23°C° 0 mm 1 mps 606 mmHg 43%
    06:00 +24°C° 0 mm 1 mps 607 mmHg 39%
    07:00 +26°C° 0 mm 1 mps 608 mmHg 36%
    08:00 +27°C° 0 mm 1 mps 608 mmHg 32%
    09:00 +28°C° 0 mm 1 mps 608 mmHg 28%
    10:00 +30°C° 0 mm 1 mps 609 mmHg 24%
    11:00 +31°C° 0 mm 2 mps 609 mmHg 22%
    12:00 +32°C° 0 mm 2 mps 609 mmHg 20%
    13:00 +34°C° 0 mm 2 mps 609 mmHg 18%
    14:00 +35°C° 0 mm 2 mps 609 mmHg 17%
    15:00 +35°C° 0 mm 3 mps 609 mmHg 16%
    16:00 +35°C° 0 mm 3 mps 609 mmHg 16%
    17:00 +36°C° 0 mm 3 mps 608 mmHg 14%
    18:00 +34°C° 0 mm 2 mps 608 mmHg 16%
    19:00 +32°C° 0 mm 2 mps 608 mmHg 18%
    20:00 +31°C° 0 mm 2 mps 608 mmHg 20%
    21:00 +30°C° 0 mm 2 mps 608 mmHg 23%
    22:00 +29°C° 0 mm 2 mps 608 mmHg 25%
    23:00 +28°C° 0 mm 2 mps 608 mmHg 28%

    Tomorrow, 22 July, Sunday

    Time Temperature Precipitation Wind Pressure Humidity
    00:00 +27°C° 0 mm 1 mps 607 mmHg 31%
    01:00 +26°C° 0 mm 1 mps 607 mmHg 34%
    02:00 +25°C° 0 mm 1 mps 606 mmHg 37%
    03:00 +25°C° 0 mm 1 mps 606 mmHg 39%
    04:00 +24°C° 0 mm 1 mps 606 mmHg 41%
    05:00 +24°C° 0 mm 1 mps 606 mmHg 43%
    06:00 +25°C° 0 mm 1 mps 607 mmHg 38%
    07:00 +24°C° 0 mm 0 mps 607 mmHg 33%
    08:00 +26°C° 0 mm 0 mps 608 mmHg 29%
    09:00 +29°C° 0 mm 1 mps 608 mmHg 24%
    10:00 +30°C° 0 mm 1 mps 608 mmHg 20%
    11:00 +32°C° 0 mm 1 mps 609 mmHg 16%
    12:00 +34°C° 0 mm 2 mps 609 mmHg 15%
    13:00 +35°C° 0 mm 2 mps 609 mmHg 13%
    14:00 +36°C° 0 mm 2 mps 608 mmHg 11%
    15:00 +36°C° 0 mm 2 mps 608 mmHg 11%
    16:00 +36°C° 0 mm 3 mps 608 mmHg 11%
    17:00 +37°C° 0 mm 3 mps 608 mmHg 10%
    18:00 +35°C° 0 mm 3 mps 608 mmHg 13%
    19:00 +34°C° 0 mm 3 mps 608 mmHg 15%
    20:00 +31°C° 0 mm 3 mps 607 mmHg 17%
    21:00 +30°C° 0 mm 2 mps 607 mmHg 21%
    22:00 +29°C° 0 mm 2 mps 607 mmHg 24%
    23:00 +28°C° 0 mm 2 mps 607 mmHg 27%

    Day after tomorrow, 23 July, Monday

    Time Temperature Precipitation Wind Pressure Humidity
    00:00 +27°C° 0 mm 2 mps 607 mmHg 30%
    01:00 +26°C° 0 mm 1 mps 607 mmHg 33%
    02:00 +26°C° 0 mm 1 mps 606 mmHg 37%
    03:00 +25°C° 0 mm 1 mps 606 mmHg 38%
    04:00 +25°C° 0 mm 1 mps 606 mmHg 40%
    05:00 +24°C° 0 mm 1 mps 606 mmHg 42%
    06:00 +25°C° 0 mm 1 mps 606 mmHg 38%
    07:00 +27°C° 0 mm 1 mps 607 mmHg 34%
    08:00 +28°C° 0 mm 1 mps 607 mmHg 30%
    09:00 +29°C° 0 mm 1 mps 608 mmHg 26%
    10:00 +30°C° 0 mm 1 mps 608 mmHg 22%
    11:00 +32°C° 0 mm 2 mps 608 mmHg 19%
    12:00 +34°C° 0 mm 2 mps 608 mmHg 18%
    13:00 +35°C° 0 mm 2 mps 608 mmHg 16%
    14:00 +36°C° 0 mm 2 mps 608 mmHg 15%
    15:00 +36°C° 0 mm 3 mps 608 mmHg 16%
    16:00 +36°C° 0 mm 3 mps 608 mmHg 16%
    17:00 +36°C° 0 mm 3 mps 608 mmHg 17%
    18:00 +34°C° 0 mm 3 mps 608 mmHg 21%
    19:00 +31°C° 0 mm 3 mps 607 mmHg 26%
    20:00 +30°C° 0 mm 3 mps 607 mmHg 30%
    21:00 +29°C° 0 mm 2 mps 607 mmHg 35%
    22:00 +28°C° 0 mm 2 mps 607 mmHg 39%
    23:00 +27°C° 0 mm 1 mps 608 mmHg 44%

    24 July, Tuesday

    Time Temperature Precipitation Wind Pressure Humidity
    00:00 +26°C° 0 mm 1 mps 607 mmHg 46%
    01:00 +26°C° 0 mm 1 mps 607 mmHg 49%
    02:00 +25°C° 0 mm 1 mps 607 mmHg 51%
    03:00 +25°C° 0 mm 1 mps 607 mmHg 49%
    04:00 +24°C° 0 mm 1 mps 606 mmHg 48%
    05:00 +24°C° 0 mm 1 mps 606 mmHg 47%
    06:00 +25°C° 0 mm 1 mps 607 mmHg 41%
    07:00 +27°C° 0 mm 1 mps 607 mmHg 36%
    08:00 +28°C° 0 mm 1 mps 608 mmHg 30%
    09:00 +30°C° 0 mm 1 mps 608 mmHg 25%
    10:00 +31°C° 0 mm 2 mps 609 mmHg 20%
    11:00 +34°C° 0 mm 2 mps 609 mmHg 15%
    12:00 +35°C° 0 mm 2 mps 609 mmHg 15%
    13:00 +35°C° 0 mm 3 mps 609 mmHg 14%
    14:00 +36°C° 0 mm 3 mps 609 mmHg 13%
    15:00 +36°C° 0 mm 3 mps 609 mmHg 14%
    16:00 +36°C° 0 mm 4 mps 609 mmHg 14%
    17:00 +36°C° 0 mm 4 mps 609 mmHg 14%
    18:00 +35°C° 0 mm 4 mps 609 mmHg 17%
    19:00 +33°C° 0 mm 4 mps 609 mmHg 20%
    20:00 +32°C° 0 mm 4 mps 609 mmHg 23%
    21:00 +30°C° 0 mm 3 mps 608 mmHg 27%
    22:00 +29°C° 0 mm 2 mps 608 mmHg 31%
    23:00 +28°C° 0 mm 2 mps 608 mmHg 34%

    25 July, Wednesday

    Time Temperature Precipitation Wind Pressure Humidity
    00:00 +27°C° 0 mm 2 mps 608 mmHg 36%
    01:00 +26°C° 0 mm 1 mps 607 mmHg 38%
    02:00 +25°C° 0 mm 1 mps 607 mmHg 40%
    03:00 +25°C° 0 mm 1 mps 607 mmHg 39%
    04:00 +25°C° 0 mm 2 mps 606 mmHg 37%
    05:00 +24°C° 0 mm 2 mps 606 mmHg 36%
    06:00 +25°C° 0 mm 2 mps 607 mmHg 32%
    07:00 +27°C° 0 mm 2 mps 607 mmHg 28%
    08:00 +28°C° 0 mm 2 mps 608 mmHg 25%
    09:00 +29°C° 0 mm 2 mps 608 mmHg 21%
    10:00 +31°C° 0 mm 2 mps 608 mmHg 18%
    11:00 +33°C° 0 mm 3 mps 609 mmHg 15%
    12:00 +34°C° 0 mm 3 mps 609 mmHg 13%
    13:00 +36°C° 0 mm 4 mps 609 mmHg 12%
    14:00 +37°C° 0 mm 4 mps 608 mmHg 11%
    15:00 +36°C° 0 mm 5 mps 608 mmHg 11%
    16:00 +36°C° 0 mm 5 mps 608 mmHg 11%
    17:00 +36°C° 0 mm 6 mps 608 mmHg 11%
    18:00 +34°C° 0 mm 5 mps 608 mmHg 13%
    19:00 +33°C° 0 mm 5 mps 607 mmHg 14%
    20:00 +30°C° 0 mm 4 mps 607 mmHg 16%
    21:00 +29°C° 0 mm 3 mps 607 mmHg 18%
    22:00 +28°C° 0 mm 3 mps 607 mmHg 19%
    23:00 +27°C° 0 mm 2 mps 607 mmHg 21%

    26 July, Thursday

    Time Temperature Precipitation Wind Pressure Humidity
    00:00 +26°C° 0 mm 2 mps 606 mmHg 21%
    01:00 +25°C° 0 mm 2 mps 606 mmHg 22%
    02:00 +24°C° 0 mm 2 mps 606 mmHg 22%
    03:00 +24°C° 0 mm 2 mps 605 mmHg 22%
    04:00 +23°C° 0 mm 2 mps 605 mmHg 21%
    05:00 +23°C° 0 mm 2 mps 605 mmHg 21%
    06:00 +24°C° 0 mm 2 mps 606 mmHg 19%
    07:00 +25°C° 0 mm 2 mps 606 mmHg 17%
    08:00 +27°C° 0 mm 2 mps 607 mmHg 15%
    09:00 +28°C° 0 mm 2 mps 607 mmHg 14%
    10:00 +30°C° 0 mm 3 mps 608 mmHg 12%
    11:00 +31°C° 0 mm 3 mps 608 mmHg 10%
    12:00 +33°C° 0 mm 3 mps 608 mmHg 10%
    13:00 +34°C° 0 mm 3 mps 608 mmHg 9%
    14:00 +35°C° 0 mm 3 mps 608 mmHg 9%
    15:00 +35°C° 0 mm 4 mps 608 mmHg 9%
    16:00 +35°C° 0 mm 4 mps 608 mmHg 8%
    17:00 +35°C° 0 mm 5 mps 608 mmHg 8%
    18:00 +33°C° 0 mm 4 mps 607 mmHg 10%
    19:00 +30°C° 0 mm 4 mps 607 mmHg 12%
    20:00 +29°C° 0 mm 4 mps 607 mmHg 13%
    21:00 +28°C° 0 mm 3 mps 607 mmHg 15%
    22:00 +27°C° 0 mm 3 mps 607 mmHg 16%
    23:00 +26°C° 0 mm 2 mps 607 mmHg 18%
    Show more